Flight Track Log - Related Links

Times and Time Zones

All times are in EDT time to prevent confusion due to time zone crossing. See the SWA17 flight status page for this flight to view local times or setup timezone preferences in your user account.

Time Position Orientation Groundspeed Altitude Reporting Facility
EDT Latitude Longitude Course Direction KTS MPH feet Rate Location/Type
Sat 06:12:48 AM 42.7672 -73.8061 180° South 152 175 1,400  Level Boston Center
Sat 06:14:32 AM 42.8539 -73.8817 327° Northwest 235 270 7,000 3,585 Climbing Boston Center
Sat 06:15:32 AM 42.8736 -73.9783 286° West 236 272 11,200 3,750 Climbing Boston Center
Sat 06:16:32 AM 42.8722 -74.0803 269° West 272 313 14,500 2,917 Climbing Boston Center
Sat 06:17:56 AM 42.7692 -74.1428 204° Southwest 276 318 18,200 3,000 Climbing Boston Center
Sat 06:18:00 AM 42.2880 -74.1932 180° South  Level Estimated
Sat 06:18:56 AM 42.6567 -74.1367 178° South 337 388 21,700  Level Boston Center
Sat 06:19:56 AM 42.5575 -74.0722 154° Southeast 355 409 24,000 2,850 Climbing Boston Center
Sat 06:20:56 AM 42.4519 -74.0103 157° South 382 440 27,400 2,000 Climbing Boston Center
Sat 06:21:56 AM 42.3528 -73.9517 156° South 387 445 28,000 300 Climbing Boston Center
Sat 06:22:56 AM 42.2419 -73.9742 189° South 378 435 28,000  Level Boston Center
Sat 06:23:56 AM 42.1311 -74.0078 193° South 395 455 28,000  Level Boston Center
Sat 06:24:56 AM 42.0186 -74.0133 182° South 401 461 28,000  Level Boston Center
Sat 06:25:56 AM 41.9039 -74.0189 182° South 406 467 28,000  Level Boston Center
Sat 06:26:56 AM 41.7911 -74.0217 181° South 411 473 28,000 400 Level Boston Center
Sat 06:27:56 AM 41.6786 -74.0244 181° South 404 465 28,800 635 Climbing Boston Center
Sat 06:30:05 AM 41.4308 -74.0444 183° South 428 493 30,000 385 Climbing New York Center
Sat 06:31:03 AM 41.3189 -74.0914 197° South 419 482 30,000 -356 Level New York Center
Sat 06:32:03 AM 41.2131 -74.1553 204° Southwest 419 482 29,300 -893 Descending New York Center
Sat 06:33:04 AM 41.0925 -74.2208 202° Southwest 419 482 28,200 -650 Descending New York Center
Sat 06:34:03 AM 40.9947 -74.2900 208° Southwest 414 476 28,000 -101 Descending New York Center
Sat 06:35:03 AM 40.9144 -74.3928 224° Southwest 401 461 28,000  Level New York Center
Sat 06:36:04 AM 40.8342 -74.4900 223° Southwest 401 461 28,000  Level New York Center
Sat 06:37:03 AM 40.7561 -74.5928 225° Southwest 401 461 28,000  Level New York Center
Sat 06:38:03 AM 40.6797 -74.6950 225° Southwest 401 461 28,000  Level New York Center
Sat 06:39:04 AM 40.6014 -74.7972 225° Southwest 401 461 28,000  Level New York Center
Sat 06:40:04 AM 40.5228 -74.8992 225° Southwest 396 456 28,000  Level New York Center
Sat 06:41:04 AM 40.4442 -75.0008 225° Southwest 396 456 28,000  Level New York Center
Sat 06:42:05 AM 40.3675 -75.0994 224° Southwest 396 456 28,000 -950 Level New York Center
Sat 06:43:04 AM 40.2908 -75.2036 226° Southwest 396 456 26,100 -2,168 Descending New York Center
Sat 06:44:04 AM 40.2164 -75.2994 225° Southwest 396 456 23,700 -2,380 Descending New York Center
Sat 06:45:05 AM 40.1419 -75.3869 222° Southwest 386 444 21,300 -2,420 Descending New York Center
Sat 06:46:03 AM 40.0717 -75.4772 225° Southwest 373 429 18,900 -1,650 Descending New York Center
Sat 06:47:05 AM 40.0058 -75.5622 225° Southwest 352 405 18,000 -443 Descending New York Center
Sat 06:48:05 AM 39.9397 -75.6469 225° Southwest 342 394 18,000 -101 Level New York Center
Sat 06:49:04 AM 39.8817 -75.7403 231° Southwest 342 394 17,800 -559 Descending New York Center
Sat 06:50:03 AM 39.8317 -75.8367 236° Southwest 335 386 16,900 -1,679 Descending New York Center
Sat 06:52:17 AM 39.7167 -76.0500 235° Southwest 322 371 12,400 -1,723 Descending Potomac TRACON
Sat 06:53:11 AM 39.6667 -76.1333 232° Southwest 286 329 11,500 -1,263 Descending Potomac TRACON
Sat 06:54:11 AM 39.6333 -76.2167 243° Southwest 271 312 10,000 -1,579 Descending Potomac TRACON
Sat 06:55:05 AM 39.6000 -76.2833 237° Southwest 267 307 8,500 -1,632 Descending Potomac TRACON
Sat 06:56:05 AM 39.5333 -76.3500 218° Southwest 273 314 6,900 -1,300 Descending Potomac TRACON
Sat 06:57:05 AM 39.4667 -76.4000 210° Southwest 271 312 5,900 -1,000 Descending Potomac TRACON
Sat 06:57:59 AM 39.4000 -76.4167 191° South 275 316 5,000 -1,000 Descending Potomac TRACON
Sat 06:58:59 AM 39.3333 -76.4667 210° Southwest 269 310 4,000 -1,150 Descending Potomac TRACON
Sat 06:59:59 AM 39.2667 -76.5000 201° Southwest 250 288 2,700 -947 Descending Potomac TRACON
Sat 07:00:53 AM 39.2167 -76.5333 207° Southwest 225 259 2,200 -556 Descending Potomac TRACON

Login

Don't have an account? Register now (free) for customized features, flight alerts, and more!